OBJECT H, 67681

Orbit data source: Space-Track

You're viewing an Uncataloged Satellite

Recently launched and/or uncataloged satellites may have evolving metadata. Metadata may include but not limited to: Owner, Maufacturer, Bus, Motor, and Mission.

OBJECT H, 67681 is a satellite owned by VVKO VKS (CIS) in SSO that was launched on Thu, 05 Feb 2026 UTC via a SOYUZ-2-1B launch vehicle from the Plesetsk Missile And Space Complex (PKMTR). Unknown objects in Earth's orbit typically refer to objects detected orbiting the Earth but have not yet been identified or cataloged. These objects could be anything from previously untracked satellites, spent rocket stages, debris from satellite collisions, or even natural meteoroids temporarily captured by Earth's gravity.

Loading next visibility...
Identifier
67681, 2026-023H
Orbit
SSO
Country
Flag of CISCIS
Related business
Manufacturer
Unknown (RU)
Mission
Spacecraft
Bus & Motor
UNK, Unknown motor
Mass
~500 kg wet, ~500 kg dry
Launch date (UTC)
2026-02-05 (2 months ago)
Launch vehicle
SOYUZ-2-1B
Launch site
Plesetsk Missile And Space Complex (PKMTR)
Object type
Unknown
Shape & HBR
Unknown shape, 1.1 m
Radar Cross Section
RCS unknown

Expand to show TLE details & history
Last TLE update: 11 hours ago

TLE from 11 hours ago
0 OBJECT H
1 67681U 26023H   26103.92086080  .00004856  00000-0  20199-3 0  9993
2 67681  96.6345 175.3309 0021337 357.6277   2.4858 15.23953936 10200
Epoch: 2026-04-13T22:06Z
TLE epoch observation values (Epoch: 2026-04-13T22:06:02.373Z)
Latitude
0.00005°
Longitude
1.71647°
Altitude
482.393 km
Speed
7.632 km/s
True Right ascension
11h 41m 19s
True Declination
0° 00' 00"
Sunlit
Object was in full shadow at epoch
Visualization orbit readout
Latitude
Unknown
Longitude
Unknown
Altitude
Unknown
Speed
Unknown
Apparent Right ascension
Unknown
Apparent Declination
Unknown
Sunlit
N/A
Visualization observer readout
Local Sidereal Time
15:40:42
Azimuth
Unknown
Elevation
Unknown
Doppler factor
Unknown
Orbital elements
Apogee altitude
505.514 km
Perigee altitude
476.201 km
Semi-major axis
6,868.995 km
Eccentricity
0.00213
Inclination
96.6345°
RAAN
175.3309°
Arg. of periapsis
357.6277°
True anomaly
2.49643°
Mean anomaly
2.4858°
Eccentric anomaly
2.49111°
Mean motion
3.81244 °/min
Orbital period
94.43 mins
BSTAR
0.00020199
Loading maneuver chart data...
Computing Atmospheric mass density...
Loading historical data...
Loading historical data...
Loading historical data...
Loading historical data...
Loading historical data...
Loading historical data...
Loading historical data...

Documentation

Showing up to 5 results
|